Majesty of the Seas — C6FZ8 — position and weather

sailwx.info

Track history (hours):
 
Tides and Currents Weather Stations Pressure Air Temp Water Temp Dewpoint Dewpoint Depression Visibility Wind Speed Wind Dir Waves Ship Positions

Majesty of the Seas (Bahamas)

Last reported at 2018-Jun-24 01:31 UTC. Time now 2018-Jun-25 00:40 UTC.
Position N 20°34' W 086°58'.

Length 268 m; draft 8 m.

Type: Ship. MMSI: 311734000.

Date/timePositionNaut miles runAvg speedWind from/ knotsBaromVisibWave heightAir tempDewpointWater temp
2018-Jun-24 01:31N 20°34' W 086°58'019.6
2018-Jun-24 01:30N 20°34' W 086°58'510.3
2018-Jun-24 00:59N 20°29' W 086°59'0 0.1
2018-Jun-24 00:29N 20°29' W 086°59'0 0.0
2018-Jun-23 23:56N 20°29' W 086°59'0 0.0
2018-Jun-23 23:29N 20°29' W 086°59'0 0.0
2018-Jun-23 22:59N 20°29' W 086°59'0 0.0
2018-Jun-23 22:29N 20°29' W 086°59'0 0.0
2018-Jun-23 21:59N 20°29' W 086°59'0 0.0
2018-Jun-23 21:29N 20°29' W 086°59'0 0.0
2018-Jun-23 20:59N 20°29' W 086°59'0 0.0
2018-Jun-23 20:29N 20°29' W 086°59'0 0.0
2018-Jun-23 19:59N 20°29' W 086°59'0 0.0
2018-Jun-23 19:23N 20°29' W 086°59'0 0.0
2018-Jun-23 18:59N 20°29' W 086°59'0 0.0
2018-Jun-23 18:29N 20°29' W 086°59'0 0.0
2018-Jun-23 17:59N 20°29' W 086°59'0 0.0
2018-Jun-23 17:23N 20°29' W 086°59'0 0.0
2018-Jun-23 16:59N 20°29' W 086°59'0 0.0
2018-Jun-23 16:29N 20°29' W 086°59'0 0.0
2018-Jun-23 15:59N 20°29' W 086°59'2 3.6
2018-Jun-23 15:30N 20°31' W 086°58'714.1
2018-Jun-23 15:00N 20°37' W 086°55'  
2018-Jun-19 06:00N 23°54' W 083°18'   100 / 141015.827.0 27.024.129.6
2018-Jun-15 06:00N 22°36' W 085°36'14320.1 100 / 201015.627.0 27.423.828.5
2018-Jun-14 22:53N 20°35' W 086°58'614.9
2018-Jun-14 22:30N 20°30' W 086°59'1 1.9
2018-Jun-14 21:59N 20°29' W 086°59'0 0.0
2018-Jun-14 21:29N 20°29' W 086°59'0 0.0
2018-Jun-14 20:59N 20°29' W 086°59'0 0.0
2018-Jun-14 20:29N 20°29' W 086°59'0 0.0
2018-Jun-14 19:59N 20°29' W 086°59'0 0.0
2018-Jun-14 19:29N 20°29' W 086°59'0 0.0
2018-Jun-14 18:59N 20°29' W 086°59'0 0.0
2018-Jun-14 18:26N 20°29' W 086°59'0 0.0
2018-Jun-14 17:59N 20°29' W 086°59'0 0.0
2018-Jun-14 17:29N 20°29' W 086°59'0 0.0
2018-Jun-14 16:59N 20°29' W 086°59'0 0.0
2018-Jun-14 16:29N 20°29' W 086°59'0 0.0
2018-Jun-14 15:59N 20°29' W 086°59'0 0.0
2018-Jun-14 15:29N 20°29' W 086°59'0 0.0
2018-Jun-14 14:59N 20°29' W 086°59'0 0.0
2018-Jun-14 14:29N 20°29' W 086°59'0 0.0
2018-Jun-14 13:59N 20°29' W 086°59'0 0.0
2018-Jun-14 13:29N 20°29' W 086°59'0 0.0
2018-Jun-14 12:59N 20°29' W 086°59'0 0.0
2018-Jun-14 12:29N 20°29' W 086°59'0 0.0
2018-Jun-14 11:59N 20°29' W 086°59'0 0.0
2018-Jun-14 11:29N 20°29' W 086°59'0 0.0
2018-Jun-14 10:59N 20°29' W 086°59'0 0.0
2018-Jun-14 10:23N 20°29' W 086°59'2 4.3
2018-Jun-14 10:01N 20°30' W 086°59'611.9
2018-Jun-14 09:30N 20°36' W 086°56'4 7.7
2018-Jun-14 09:00N 20°38' W 086°53'29 9.5
2018-Jun-14 06:00N 20°48' W 086°24'   110 / 151014.627.0 25.924.328.5
Track history (hours):
 
Tides and Currents Weather Stations Pressure Air Temp Water Temp Dewpoint Dewpoint Depression Visibility Wind Speed Wind Dir Waves Ship Positions

Majesty of the Seas (Bahamas)

Last reported at 2018-Jun-24 01:31 UTC. Time now 2018-Jun-25 00:40 UTC.
Position N 20°34' W 086°58'.

Length 268 m; draft 8 m.

Type: Ship. MMSI: 311734000.

Date/timePositionNaut miles runAvg speedWind from/ knotsBaromVisibWave heightAir tempDewpointWater temp
2018-Jun-24 01:31N 20°34' W 086°58'019.6
2018-Jun-24 01:30N 20°34' W 086°58'510.3
2018-Jun-24 00:59N 20°29' W 086°59'0 0.1
2018-Jun-24 00:29N 20°29' W 086°59'0 0.0
2018-Jun-23 23:56N 20°29' W 086°59'0 0.0
2018-Jun-23 23:29N 20°29' W 086°59'0 0.0
2018-Jun-23 22:59N 20°29' W 086°59'0 0.0
2018-Jun-23 22:29N 20°29' W 086°59'0 0.0
2018-Jun-23 21:59N 20°29' W 086°59'0 0.0
2018-Jun-23 21:29N 20°29' W 086°59'0 0.0
2018-Jun-23 20:59N 20°29' W 086°59'0 0.0
2018-Jun-23 20:29N 20°29' W 086°59'0 0.0
2018-Jun-23 19:59N 20°29' W 086°59'0 0.0
2018-Jun-23 19:23N 20°29' W 086°59'0 0.0
2018-Jun-23 18:59N 20°29' W 086°59'0 0.0
2018-Jun-23 18:29N 20°29' W 086°59'0 0.0
2018-Jun-23 17:59N 20°29' W 086°59'0 0.0
2018-Jun-23 17:23N 20°29' W 086°59'0 0.0
2018-Jun-23 16:59N 20°29' W 086°59'0 0.0
2018-Jun-23 16:29N 20°29' W 086°59'0 0.0
2018-Jun-23 15:59N 20°29' W 086°59'2 3.6
2018-Jun-23 15:30N 20°31' W 086°58'714.1
2018-Jun-23 15:00N 20°37' W 086°55'  
2018-Jun-19 06:00N 23°54' W 083°18'   100 / 141015.827.0 27.024.129.6
2018-Jun-15 06:00N 22°36' W 085°36'14320.1 100 / 201015.627.0 27.423.828.5
2018-Jun-14 22:53N 20°35' W 086°58'614.9
2018-Jun-14 22:30N 20°30' W 086°59'1 1.9
2018-Jun-14 21:59N 20°29' W 086°59'0 0.0
2018-Jun-14 21:29N 20°29' W 086°59'0 0.0
2018-Jun-14 20:59N 20°29' W 086°59'0 0.0
2018-Jun-14 20:29N 20°29' W 086°59'0 0.0
2018-Jun-14 19:59N 20°29' W 086°59'0 0.0
2018-Jun-14 19:29N 20°29' W 086°59'0 0.0
2018-Jun-14 18:59N 20°29' W 086°59'0 0.0
2018-Jun-14 18:26N 20°29' W 086°59'0 0.0
2018-Jun-14 17:59N 20°29' W 086°59'0 0.0
2018-Jun-14 17:29N 20°29' W 086°59'0 0.0
2018-Jun-14 16:59N 20°29' W 086°59'0 0.0
2018-Jun-14 16:29N 20°29' W 086°59'0 0.0
2018-Jun-14 15:59N 20°29' W 086°59'0 0.0
2018-Jun-14 15:29N 20°29' W 086°59'0 0.0
2018-Jun-14 14:59N 20°29' W 086°59'0 0.0
2018-Jun-14 14:29N 20°29' W 086°59'0 0.0
2018-Jun-14 13:59N 20°29' W 086°59'0 0.0
2018-Jun-14 13:29N 20°29' W 086°59'0 0.0
2018-Jun-14 12:59N 20°29' W 086°59'0 0.0
2018-Jun-14 12:29N 20°29' W 086°59'0 0.0
2018-Jun-14 11:59N 20°29' W 086°59'0 0.0
2018-Jun-14 11:29N 20°29' W 086°59'0 0.0
2018-Jun-14 10:59N 20°29' W 086°59'0 0.0
2018-Jun-14 10:23N 20°29' W 086°59'2 4.3
2018-Jun-14 10:01N 20°30' W 086°59'611.9
2018-Jun-14 09:30N 20°36' W 086°56'4 7.7
2018-Jun-14 09:00N 20°38' W 086°53'29 9.5
2018-Jun-14 06:00N 20°48' W 086°24'   110 / 151014.627.0 25.924.328.5

Dump ship's entire track history